Estación municipal de St. Hilari Sacalm (La Selva, Guilleries)

Consulta los datos en tiempo real de la estación municipal de St. Hilari Sacalm





Hora UTC 02:15
Temperatura 8.6 ºC
Humedad 98.1 %
Presión 1011.8 hPa
Pluja 0.0 mm
Velocidad viento 1.9 km/h
Dirección viento SW
Radiación solar 0.1 W/m²

Webcam

Datos diarios 2026-05-10



Hora UTC (invierno +1h; verano +2h)
Temperatura (ºC) Humedad (%) Presión (hPa) Velocidad viento (km/h) Precipitación (mm) Radiación solar (W/m²)
Hora UTC Aire Humedad Presión Vel. Dir. Vel. Max Dir. Intent. máx 5 min. Rad. Sol.
00:05 9.8 97.4 1013.0 8.3 WNW 8.3 WNW 0.0 0.1
00:10 9.7 97.3 1012.9 5.4 NW 14.2 NW 0.0 0.1
00:15 9.6 97.3 1012.9 7.1 NW 16.9 NW 0.0 0.1
00:20 9.5 97.3 1012.8 5.3 NW 14.2 NNW 0.0 0.1
00:25 9.4 97.4 1012.7 2.4 WNW 14.2 NNW 0.0 0.1
00:30 9.4 97.4 1012.6 0.8 NW 11.5 W 0.0 0.1
00:35 9.2 97.4 1012.6 1.4 NW 11.5 NW 0.0 0.1
00:40 9.2 97.5 1012.4 3.0 WNW 14.2 W 0.0 0.1
00:45 9.1 97.5 1012.4 3.2 WNW 11.5 W 0.0 0.1
00:50 9.0 97.4 1012.4 1.4 WNW 11.5 W 0.0 0.1
00:55 9.0 97.5 1012.3 0.2 NW 6.1 WNW 0.0 0.1
01:00 8.9 97.5 1012.2 0.1 W 6.1 W 0.0 0.1
01:05 8.8 97.6 1012.2 0.0 NNE 0.0 W 0.0 0.1
01:10 8.7 97.5 1012.2 0.0 NNE 0.0 W 0.0 0.1
01:15 8.6 97.6 1012.2 0.0 NNE 0.0 WNW 0.0 0.1
01:20 8.6 97.6 1012.2 0.0 WSW 3.4 W 0.0 0.1
01:25 8.5 97.7 1012.1 0.0 NNE 0.0 WSW 0.0 0.1
01:30 8.5 97.7 1012.1 0.0 NNE 0.0 SW 0.0 0.1
01:35 8.4 97.7 1012.0 0.2 WSW 8.8 W 0.0 0.1
01:40 8.5 97.8 1012.0 0.7 WSW 8.8 W 0.0 0.1
01:45 8.5 97.8 1012.0 0.0 NNE 0.0 W 0.0 0.1
01:50 8.4 97.7 1012.0 0.0 NNE 0.0 W 0.0 0.1
01:55 8.4 97.8 1012.0 0.0 NNE 0.0 SW 0.0 0.1
02:00 8.5 98.1 1011.9 0.0 NNE 0.0 SW 0.0 0.1
02:05 8.5 97.9 1011.9 0.0 NNE 0.0 SW 0.0 0.1
02:10 8.5 97.9 1011.9 0.4 SSW 11.5 SW 0.0 0.1
02:15 8.6 98.1 1011.8 1.9 SW 14.2 SW 0.0 0.1
Máxima 9.8 98.1 1013.0 8.3 WNW 16.9 NW 0.0 0.1
Mínima 8.4 97.3 1011.8
Total 0.0